Regional Weather Roundup
Issued by NWS

Home | Current Version | Previous Version | Text Only | Print | Product List | Glossary Off
Versions: 1 2 3 4 5 6 7 8 9 10 11 12 13 14 15 16 17 18 19 20 21 22 23 24 25 26 27 28 29 30 31 32 33 34 35 36 37 38 39 40 41 42 43 44 45 46 47 48 49 50

000
ASUS43 KMPX 202010
RWRMN
WEATHER ROUNDUP FOR MINNESOTA
NATIONAL WEATHER SERVICE TWIN CITIES/CHANHASSEN MN
300 PM CDT SUN AUG 20 2017


NOTE: "FAIR" INDICATES FEW OR NO CLOUDS BELOW 12,000 FEET WITH NO
SIGNIFICANT WEATHER AND/OR OBSTRUCTIONS TO VISIBILITY. N/A MEANS
CURRENT SKY AND/OR WEATHER CONDITIONS ARE NOT AVAILABLE.

MNZ060>063-068>070-202100-
   Twin Cities Metro

CITY           SKY/WX    TMP DP  RH WIND       PRES   REMARKS
TWIN CITIES    MOSUNNY   84  68  58 VRB3      29.92F
ST PAUL        MOSUNNY   83  70  64 VRB6      29.92S
CRYSTAL        MOSUNNY   84  64  50 NW5       29.91F
BLAINE         MOSUNNY   84  66  54 NW6       29.92F
LAKEVILLE      PTSUNNY   81  70  69 W3        29.94S
EDEN PRAIRIE   SUNNY     85  68  56 CALM      29.92F
SOUTH ST PAUL  MOSUNNY   82  68  60 W6        29.92S
LAKE ELMO      PTSUNNY   81  70  69 W7        29.94S
$$
MNZ001>005-007-008-013>017-022>024-027-028-202100-
   Northwest Minnesota

CITY           SKY/WX    TMP DP  RH WIND       PRES   REMARKS
BEMIDJI        SUNNY     73  50  43 NW10G16   29.96S
HALLOCK        PTSUNNY   79  37  22 W15G22    29.95S
ROSEAU         PTSUNNY   77  48  36 NW13G18   29.94R
WARROAD        MOSUNNY   73  52  46 W13       29.93S
THIEF RVR FALL SUNNY     75  43  31 NW16      29.97S
CROOKSTON      MOSUNNY   77  43  29 N16       29.96S
FOSSTON        SUNNY     75  46  35 NW12      29.97R
DETROIT LAKES  SUNNY     72  50  46 NW12      30.01S
MOORHEAD       MOSUNNY   72  52  49 N8        30.00S
PARK RAPIDS    CLOUDY    74  57  55 NW8       29.98R
MAHNOMEN       FAIR      73  48  40 N6        29.99R
$$
MNZ006-009>011-018-025>026-202100-
   North Central Minnesota

CITY           SKY/WX    TMP DP  RH WIND       PRES   REMARKS
BAUDETTE       SUNNY     76  49  38 NW16G23   29.91F
FLAG ISLAND    HAZE      73  45  35 W9        29.90S VSB 1
INTL FALLS     SUNNY     75  49  39 NW14G21   29.90R
WASKISH        MOSUNNY   75  52  43 W7        29.93S
BIG FORK       MOSUNNY   75  54  46 CALM      29.93F
LONGVILLE      CLOUDY    72  57  60 W6        29.97R
GRAND RAPIDS   CLOUDY    73  55  53 NW10      29.96S
CRANE LAKE     CLOUDY    73  54  49 NW9       29.91S
ORR            MOSUNNY   73  50  43 W9        29.90S
COOK           CLOUDY    73  54  49 NW7       29.91S
WALKER         FAIR      73  55  53 CALM      29.96S
$$
MNZ012-019>021-037-202100-
   Northeast Minnesota

CITY           SKY/WX    TMP DP  RH WIND       PRES   REMARKS
DULUTH         MOSUNNY   78  59  51 NW13G21   29.92R
ELY            CLOUDY    73  57  56 W10G17    29.89F
HIBBING        CLOUDY    73  56  54 W9        29.92S
EVELETH        CLOUDY    73  51  45 W8        29.93S
DULUTH HARBOR  MOSUNNY   81  64  57 W16       29.89R
TWO HARBORS    MOSUNNY   81  64  57 NW5       29.88R
GRAND MARAIS     N/A     67  64  90 SW8       29.82F
G MARAIS ARPRT MOSUNNY   70  57  64 W10G16    29.88F
$$
MNZ029>031-032-039>041-046>048-054>057-064-202100-
   West Central Minnesota

CITY           SKY/WX    TMP DP  RH WIND       PRES   REMARKS
FERGUS FALLS   SUNNY     72  57  60 N3        30.00R
WHEATON        CLOUDY    72  55  56 W5        30.03S
MORRIS         CLOUDY    70  61  73 SW8       30.01R
ELBOW LAKE     FAIR      71  59  67 NW6       30.01R HAZE
WADENA         CLOUDY    73  55  53 CALM      29.98F
GLENWOOD       CLOUDY    72  61  68 CALM      30.00F
APPLETON       CLOUDY    70  59  68 NW12      29.99F
BENSON         CLOUDY    70  61  73 N13       30.02R
ORTONVILLE     CLOUDY    70  57  64 MISG      30.02S
MADISON        CLOUDY    72  63  73 N10       29.99F
WILLMAR        FAIR      75  63  64 N7        29.98F
$$
MNZ033>034-036-042>043-049>051-058-059-202100-
   Central Minnesota

CITY           SKY/WX    TMP DP  RH WIND       PRES   REMARKS
ST CLOUD       CLOUDY    76  65  68 NW7       29.96R
SAUK CENTRE    FAIR      72  61  68 NW6       29.99S
PAYNESVILLE    CLOUDY    74  65  74 NW9       29.99R
AITKIN         CLOUDY    73  59  60 NW6       29.95R
PINE RIVER     CLOUDY    70  55  60 NW3       30.00S
BRAINERD       MOSUNNY   73  55  53 N7        29.98R
STAPLES        CLOUDY    72  55  56 NW5       29.98S
LONG PRAIRIE   FAIR      72  59  64 NW7       29.97F
LITTLE FALLS   CLOUDY    72  61  68 W6        29.98S
LITCHFIELD     SUNNY     81  66  61 N6        29.98R
BUFFALO        MOSUNNY   81  64  57 NW5       29.96R
MAPLE LAKE     MOSUNNY   81  65  57 N6        29.97R
HUTCHINSON     PTSUNNY   81  70  68 W8        29.98R
$$
MNZ037-044-045-052-053-202100-
   East Central Minnesota

CITY           SKY/WX    TMP DP  RH WIND       PRES   REMARKS
PRINCETON      MOSUNNY   81  66  61 W7        29.95R
MORA           CLOUDY    75  61  60 NW7       29.96F
CAMBRIDGE      SUNNY     82  64  54 NW6       29.93F
RUSH CITY      MOSUNNY   80  64  57 NW6       29.93S HAZE
MOOSE LAKE     MOSUNNY   77  61  57 NW5       29.92R
HINCKLEY       FAIR      79  64  61 NW6       29.93S
CLOQUET        SUNNY     75  55  50 NW8       29.93S
MCGREGOR       MOSUNNY   73  59  60 NW9       29.95S
$$
MNZ071>073-080-081-089-090-097-098-202100-
   Southwest Minnesota

CITY           SKY/WX    TMP DP  RH WIND       PRES   REMARKS
MONTEVIDEO     CLOUDY    77  64  65 N9        29.99R
GRANITE FALLS  CLOUDY    76  65  68 NW5       29.99F
CANBY          CLOUDY    75  60  61 N3        30.00F
MARSHALL       MOSUNNY   73  62  68 E6        29.98F
REDWOOD FALLS  PTSUNNY   78  65  63 NW6       29.97R
OLIVIA         SUNNY     77  64  65 N5        29.97S
PIPESTONE      MOSUNNY   75  61  60 NE9       30.00F
WINDOM         SUNNY     81  66  61 N8        29.98R
WORTHINGTON    MOSUNNY   80  70  71 NE7       29.99S
JACKSON        SUNNY     81  68  65 CALM      29.98S
TRACY          CLOUDY    74  67  78 N7        30.00S
SLAYTON        PTSUNNY   76  63  62 N10       30.01S HAZE
$$
MNZ065>067-074>077-082>085-091>093-202100-
   South Central Minnesota

CITY           SKY/WX    TMP DP  RH WIND       PRES   REMARKS
MANKATO        PTSUNNY   81  71  71 W7        29.95S
NEW ULM        SUNNY     81  66  61 N6        29.95S
ST JAMES       PTSUNNY   81  72  74 NW3       29.96S
FAIRMONT       SUNNY     81  68  64 S7        29.96F
GLENCOE        MOSUNNY   82  72  71 NW6       29.95R
FARIBAULT      SUNNY     82  70  65 SW7       29.95S
OWATONNA       SUNNY     82  70  65 S10       29.96S
WASECA         SUNNY     79  68  69 SW8       29.97S
ALBERT LEA     SUNNY     86  68  54 W7        29.96F
$$
MNZ078>079-086>088-094>096-202100-
   Southeast Minnesota

CITY           SKY/WX    TMP DP  RH WIND       PRES   REMARKS
ROCHESTER      SUNNY     81  67  62 W12       29.97S
RED WING       MOSUNNY   84  63  48 SW8       29.92S
STANTON        SUNNY     83  68  60 SW6       29.93S
DODGE CENTER   PTSUNNY   79  64  61 SW7       29.97F
WINONA         SUNNY     82  61  47 SW7       29.94F
AUSTIN           N/A     82 N/A N/A SW8       29.96F
PRESTON        SUNNY     81  63  52 SW9       29.97F
$$
ABBREVIATIONS USED IN REMARKS
   TC - TEMPERATURES IN CELSIUS
  WCI - WIND CHILL INDEX
   HX - HEAT INDEX
  VSB - VISIBILITY
$$




USA.gov is the U.S. government's official web portal to all federal, state and local government web resources and services.